Regional Weather Roundup
Issued by NWS

Home | Current Version | Previous Version | Text Only | Print | Product List | Glossary On
Versions: 1 2 3 4 5 6 7 8 9 10 11 12 13 14 15 16 17 18 19 20 21 22 23 24 25 26 27 28 29 30 31 32 33 34 35 36 37 38 39 40 41 42 43 44 45 46 47 48 49 50
000
ASUS43 KOAX 302310
RWRNE

WEATHER ROUNDUP FOR NEBRASKA
NATIONAL WEATHER SERVICE OMAHA NE
600 PM CDT SUN APR 30 2017

NOTES: SATELLITE DATA IS BEING USED TO AUGMENT CLOUD COVER ABOVE
       12000 FEET.
       "FAIR" INDICATES FEW OR NO CLOUDS BELOW 12,000 FEET WITH NO
       SIGNIFICANT WEATHER AND/OR OBSTRUCTIONS TO VISIBILITY.

  * THESE STATIONS DO NOT REPORT WEATHER SUCH AS RAIN...SNOW OR FOG.

NEZ001>004-019>022-054>056-010000-
NEBRASKA PANHANDLE

CITY           SKY/WX    TMP DP  RH WIND       PRES   REMARKS
SCOTTSBLUFF    SUNNY     58  24  27 N21G26    29.84F
ALLIANCE       CLOUDY    55  21  26 N25G36    29.81F
CHADRON        SUNNY     57  24  28 N16G24    29.84F
KIMBALL        SUNNY     55  21  26 N20G28    29.84S
SIDNEY         CLOUDY    55  21  26 N25G37    29.80F
$$

NEZ057>060-069>072-079>082-010000-
SOUTHWEST NEBRASKA

CITY           SKY/WX    TMP DP  RH WIND       PRES   REMARKS
NORTH PLATTE   CLOUDY    38  31  76 N28G35    29.74F WCI  26
IMPERIAL       CLOUDY    47  22  37 N26G37    29.74F
LEXINGTON      LGT SNOW  34  32  93 N32G40    29.64F VSB 3/4 WCI  20
MCCOOK         LGT SNOW  34  32  92 N30G37    29.71S VSB 1   WCI  20
OGALLALA       CLOUDY    51  18  26 N25G33    29.77S
$$

NEZ005>010-023>029-035>040-094-010000-
NORTH CENTRAL NEBRASKA

CITY           SKY/WX    TMP DP  RH WIND       PRES   REMARKS
VALENTINE      CLOUDY    51  16  24 N18G28    29.79S
AINSWORTH      CLOUDY    46  24  43 N21       29.77S
BROKEN BOW     LGT SNOW  33  33 100 N24       29.69F VSB 3/4 WCI  20
O`NEILL        LGT SNOW  34  32  93 N16G22    29.75R VSB 3/4 WCI  23
ORD            LGT SNOW  33  32  96 N21G29    29.66F FOG     WCI  21
THEDFORD       CLOUDY    47  20  33 N17G31    29.76S
$$

NEZ041-046>049-061>064-073>077-083>087-010000-
SOUTH CENTRAL NEBRASKA

CITY           SKY/WX    TMP DP  RH WIND       PRES   REMARKS
GRAND ISLAND   CLOUDY    35  35 100 N21G29    29.59F WCI  24
AURORA         CLOUDY    37  36  98 N20G26    29.57S WCI  26
HASTINGS       LGT SNOW  36  34  92 N20G30    29.59R FOG     WCI  25
HEBRON         CLOUDY    40  39  97 NE17G25   29.50S FOG     WCI  31
HOLDREGE       LGT SNOW  34  32  94 N22G31    29.63R WCI  22
KEARNEY *      CLOUDY    34  30  86 N28G35    29.62S WCI  20
YORK           LGT RAIN  37  37 100 N24G30    29.55S WCI  26
$$

NEZ011>018-030>034-042>045-010000-
NORTHEAST NEBRASKA

CITY           SKY/WX    TMP DP  RH WIND       PRES   REMARKS
NORFOLK        FLURRIES  35  33  92 N17       29.65F WCI  25
ALBION         LGT SNOW  35  32  90 N18G31    29.62F WCI  24
BLAIR          CLOUDY    41  40  95 N21G28    29.54R
FREMONT        CLOUDY    40  39  96 NE14      29.58R WCI  32
TEKAMAH        LGT RAIN  41  39  93 N32G38    29.55F FOG
WAYNE          RAIN      37  37  98 N14       29.68F WCI  29
$$

NEZ050>053-065>068-078-088>093-010000-
SOUTHEAST NEBRASKA

CITY           SKY/WX    TMP DP  RH WIND       PRES   REMARKS
LINCOLN        CLOUDY    43  40  89 NE22G29   29.54R
OMAHA EPPLEY   LGT RAIN  43  39  86 N17G25    29.53R
BEATRICE       CLOUDY    45  43  94 NE18G29   29.48R
FALLS CITY     LGT RAIN  53  50  89 E7        29.44F
NEBRASKA CITY  CLOUDY    44  44 100 NE16      29.49F FOG
PLATTSMOUTH    CLOUDY    44  41  90 N14G20    29.50F FOG
$$

NEZ044-045-051>053-067-010000-
OMAHA AREA

CITY           SKY/WX    TMP DP  RH WIND       PRES   REMARKS
OMAHA EPPLEY   LGT RAIN  43  39  86 N17G25    29.53R
BLAIR          CLOUDY    41  40  95 N21G28    29.54R
FREMONT        CLOUDY    40  39  96 NE14      29.58R WCI  32
MILLARD        CLOUDY    44  41  90 N8G17     29.52F
OFFUTT AFB     CLOUDY    44  40  88 N8        29.51F
PLATTSMOUTH    CLOUDY    44  41  90 N14G20    29.50F FOG
WAHOO          CLOUDY    41  38  90 NE20      29.56R
$$



USA.gov is the U.S. government's official web portal to all federal, state and local government web resources and services.